TimeCST,TemperatureF,Dew PointF,Humidity,Sea Level PressureIn,VisibilityMPH,Wind Direction,Wind SpeedMPH,Gust SpeedMPH,PrecipitationIn,Events,Conditions,WindDirDegrees,DateUTC
12:15 AM,32.0,32.0,100,29.42,1.8,North,5.8,-,0.01,Snow,Light Snow,10,2013-02-26 06:15:00
12:35 AM,32.0,32.0,100,29.42,1.8,North,5.8,-,0.03,Snow,Light Snow,10,2013-02-26 06:35:00
12:55 AM,32.0,32.0,100,29.42,2.0,North,6.9,-,0.04,Snow,Light Snow,10,2013-02-26 06:55:00
1:15 AM,32.0,32.0,100,29.41,1.8,North,5.8,-,0.01,Snow,Light Snow,360,2013-02-26 07:15:00
1:35 AM,32.0,32.0,100,29.41,1.5,North,5.8,-,0.02,Snow,Light Snow,360,2013-02-26 07:35:00
1:55 AM,32.0,32.0,100,29.40,1.8,North,6.9,-,0.04,Snow,Light Snow,360,2013-02-26 07:55:00
2:15 AM,32.0,32.0,100,29.40,4.0,North,10.4,-,N/A,Snow,Light Snow,360,2013-02-26 08:15:00
2:35 AM,32.0,32.0,100,29.39,4.0,North,9.2,-,N/A,Snow,Light Snow,350,2013-02-26 08:35:00
2:55 AM,32.0,32.0,100,29.38,3.0,North,8.1,-,N/A,Snow,Light Snow,350,2013-02-26 08:55:00
3:15 AM,32.0,32.0,100,29.37,2.5,North,8.1,-,0.01,Snow,Light Snow,350,2013-02-26 09:15:00
3:35 AM,32.0,32.0,100,29.37,3.0,NNW,10.4,-,0.01,Snow,Light Snow,340,2013-02-26 09:35:00
3:55 AM,32.0,32.0,100,29.36,3.0,NNW,11.5,-,0.01,Snow,Light Snow,340,2013-02-26 09:55:00
4:15 AM,32.0,32.0,100,29.37,4.0,NNW,9.2,-,N/A,Snow,Light Snow,340,2013-02-26 10:15:00
4:35 AM,32.0,32.0,100,29.37,5.0,NNW,11.5,17.3,N/A,Snow,Light Snow,340,2013-02-26 10:35:00
4:55 AM,32.0,32.0,100,29.37,5.0,NNW,12.7,-,N/A,,Overcast,340,2013-02-26 10:55:00
5:15 AM,32.0,32.0,100,29.37,5.0,NNW,11.5,16.1,N/A,Snow,Light Snow,340,2013-02-26 11:15:00
5:35 AM,32.0,32.0,100,29.37,4.0,NNW,11.5,19.6,N/A,Snow,Light Snow,330,2013-02-26 11:35:00
5:55 AM,32.0,32.0,100,29.37,0.8,NW,12.7,-,N/A,Snow,Snow,320,2013-02-26 11:55:00
6:15 AM,32.0,32.0,100,29.38,0.8,NNW,13.8,-,N/A,Snow,Snow,330,2013-02-26 12:15:00
6:35 AM,32.0,30.2,93,29.39,1.2,NNW,15.0,18.4,0.01,Snow,Light Snow,340,2013-02-26 12:35:00
6:55 AM,32.0,30.2,93,29.40,5.0,NNW,16.1,-,0.01,Rain,Rain,330,2013-02-26 12:55:00
7:15 AM,32.0,30.2,93,29.41,1.2,NNW,11.5,-,N/A,Snow,Light Snow,330,2013-02-26 13:15:00
7:35 AM,32.0,30.2,93,29.42,0.5,NNW,13.8,19.6,N/A,Snow,Light Snow,330,2013-02-26 13:35:00
7:55 AM,32.0,32.0,100,29.42,0.5,NNW,13.8,19.6,N/A,Snow,Light Snow,330,2013-02-26 13:55:00
8:15 AM,32.0,32.0,100,29.42,1.0,NNW,11.5,-,0.01,Snow,Light Snow,330,2013-02-26 14:15:00
8:35 AM,32.0,32.0,100,29.43,1.2,NNW,12.7,18.4,0.01,Snow,Light Snow,330,2013-02-26 14:35:00
8:55 AM,32.0,32.0,100,29.45,0.5,NNW,13.8,23.0,0.01,Snow,Light Snow,330,2013-02-26 14:55:00
9:15 AM,32.0,30.2,93,29.46,1.5,NNW,17.3,20.7,N/A,Snow,Light Snow,330,2013-02-26 15:15:00
9:35 AM,32.0,30.2,93,29.47,1.0,NNW,13.8,20.7,N/A,Snow,Light Snow,330,2013-02-26 15:35:00
9:55 AM,32.0,30.2,93,29.48,1.8,NW,16.1,27.6,N/A,Snow,Light Snow,320,2013-02-26 15:55:00
10:15 AM,32.0,32.0,100,29.50,1.2,NW,18.4,-,N/A,Snow,Light Snow,320,2013-02-26 16:15:00
10:35 AM,32.0,30.2,93,29.51,2.0,NW,18.4,25.3,N/A,Snow,Light Snow,310,2013-02-26 16:35:00
10:55 AM,32.0,30.2,93,29.52,5.0,NW,17.3,-,N/A,Snow,Light Snow,310,2013-02-26 16:55:00
11:15 AM,32.0,30.2,93,29.53,5.0,NW,16.1,-,N/A,Snow,Light Snow,320,2013-02-26 17:15:00
11:35 AM,32.0,30.2,93,29.54,7.0,NW,18.4,24.2,N/A,Snow,Light Snow,320,2013-02-26 17:35:00
11:55 AM,32.0,30.2,93,29.55,10.0,NW,12.7,-,N/A,,Overcast,310,2013-02-26 17:55:00
12:15 PM,32.0,30.2,93,29.55,10.0,NW,17.3,23.0,N/A,,Overcast,310,2013-02-26 18:15:00
12:35 PM,32.0,30.2,93,29.57,10.0,NW,13.8,19.6,N/A,Snow,Light Snow,310,2013-02-26 18:35:00
12:55 PM,32.0,30.2,93,29.57,10.0,NW,18.4,24.2,N/A,,Overcast,320,2013-02-26 18:55:00
1:15 PM,32.0,30.2,93,29.58,10.0,NW,16.1,19.6,N/A,,Overcast,310,2013-02-26 19:15:00
1:35 PM,32.0,30.2,93,29.58,10.0,NW,12.7,18.4,N/A,,Overcast,310,2013-02-26 19:35:00
1:55 PM,33.8,30.2,87,29.59,10.0,NW,13.8,21.9,N/A,,Overcast,320,2013-02-26 19:55:00
2:15 PM,33.8,30.2,87,29.60,10.0,WNW,13.8,23.0,N/A,,Overcast,300,2013-02-26 20:15:00
2:35 PM,33.8,30.2,87,29.60,10.0,WNW,12.7,21.9,N/A,,Overcast,300,2013-02-26 20:35:00
2:55 PM,32.0,30.2,93,29.61,10.0,WNW,13.8,-,N/A,,Overcast,290,2013-02-26 20:55:00
3:15 PM,32.0,30.2,93,29.62,10.0,WNW,15.0,20.7,N/A,,Overcast,290,2013-02-26 21:15:00
3:35 PM,32.0,30.2,93,29.63,10.0,WNW,12.7,19.6,N/A,,Overcast,300,2013-02-26 21:35:00
3:55 PM,32.0,30.2,93,29.64,10.0,NW,13.8,-,N/A,,Overcast,310,2013-02-26 21:55:00
4:15 PM,32.0,30.2,93,29.65,10.0,WNW,13.8,17.3,N/A,,Overcast,290,2013-02-26 22:15:00
4:35 PM,32.0,30.2,93,29.67,10.0,WNW,15.0,20.7,N/A,,Overcast,290,2013-02-26 22:35:00
4:55 PM,32.0,30.2,93,29.68,10.0,WNW,11.5,-,N/A,,Overcast,290,2013-02-26 22:55:00
5:15 PM,32.0,30.2,93,29.69,10.0,WNW,12.7,21.9,N/A,,Overcast,300,2013-02-26 23:15:00
5:35 PM,32.0,30.2,93,29.70,10.0,West,16.1,-,N/A,,Overcast,280,2013-02-26 23:35:00
5:55 PM,32.0,30.2,93,29.71,10.0,West,12.7,-,N/A,,Overcast,280,2013-02-26 23:55:00
6:15 PM,32.0,30.2,93,29.73,10.0,West,13.8,-,N/A,,Overcast,280,2013-02-27 00:15:00
6:35 PM,32.0,30.2,93,29.74,10.0,West,12.7,-,N/A,,Overcast,270,2013-02-27 00:35:00
6:55 PM,32.0,30.2,93,29.74,10.0,West,10.4,-,N/A,,Overcast,280,2013-02-27 00:55:00
7:15 PM,32.0,30.2,93,29.75,10.0,West,15.0,20.7,N/A,,Overcast,280,2013-02-27 01:15:00
7:35 PM,32.0,30.2,93,29.76,10.0,West,13.8,19.6,N/A,,Overcast,280,2013-02-27 01:35:00
7:55 PM,32.0,30.2,93,29.76,10.0,WNW,16.1,-,N/A,,Overcast,290,2013-02-27 01:55:00
8:15 PM,32.0,30.2,93,29.77,10.0,WNW,12.7,-,N/A,,Overcast,290,2013-02-27 02:15:00
8:35 PM,32.0,30.2,93,29.78,10.0,WNW,10.4,19.6,N/A,,Overcast,290,2013-02-27 02:35:00
8:55 PM,32.0,30.2,93,29.79,10.0,WNW,11.5,16.1,N/A,,Overcast,290,2013-02-27 02:55:00
9:15 PM,32.0,30.2,93,29.80,10.0,WNW,11.5,-,N/A,,Overcast,290,2013-02-27 03:15:00
9:35 PM,32.0,30.2,93,29.81,10.0,WNW,15.0,19.6,N/A,,Overcast,290,2013-02-27 03:35:00
9:55 PM,32.0,30.2,93,29.81,10.0,WNW,13.8,-,N/A,,Overcast,290,2013-02-27 03:55:00
10:15 PM,32.0,30.2,93,29.83,7.0,West,13.8,17.3,N/A,,Overcast,280,2013-02-27 04:15:00
10:35 PM,32.0,30.2,93,29.84,7.0,West,11.5,-,N/A,,Overcast,280,2013-02-27 04:35:00
10:55 PM,32.0,30.2,93,29.84,7.0,West,13.8,18.4,N/A,,Overcast,270,2013-02-27 04:55:00
11:15 PM,32.0,30.2,93,29.83,7.0,WNW,9.2,17.3,N/A,,Overcast,300,2013-02-27 05:15:00
11:35 PM,32.0,30.2,93,29.81,7.0,WNW,8.1,-,N/A,,Overcast,300,2013-02-27 05:35:00
11:55 PM,32.0,30.2,93,29.78,7.0,NNW,10.4,-,N/A,,Overcast,330,2013-02-27 05:55:00